Precipitable_Water
1.02 0.96 0.93 0.90 0.83 0.77 0.75 0.76 0.74 0.73 0.76 0.78 0.77 0.74 0.73 0.71 0.71 0.70 0.70 0.73 0.76 0.77 0.79 0.81 0.81 0.83 0.84 0.85 0.85 0.85 0.84 0.83
0.95 1.02 0.97 0.93 0.93 0.89 0.81 0.79 0.78 0.79 0.78 0.78 0.81 0.80 0.77 0.74 0.72 0.70 0.69 0.70 0.73 0.75 0.77 0.78 0.79 0.79 0.80 0.80 0.81 0.82 0.82 0.83
0.95 0.90 0.97 0.95 0.93 0.95 0.93 0.87 0.83 0.80 0.80 0.81 0.80 0.81 0.80 0.78 0.74 0.72 0.71 0.72 0.74 0.75 0.76 0.77 0.78 0.79 0.80 0.80 0.79 0.79 0.79 0.80
0.98 0.96 0.93 0.97 0.95 0.97 0.99 0.96 0.91 0.87 0.86 0.85 0.83 0.82 0.81 0.78 0.77 0.75 0.75 0.76 0.77 0.77 0.77 0.79 0.81 0.82 0.81 0.80 0.79 0.80 0.78 0.78
0.99 0.99 1.01 0.98 0.93 0.96 0.98 0.97 0.92 0.89 0.87 0.85 0.85 0.84 0.83 0.81 0.81 0.79 0.80 0.80 0.79 0.78 0.78 0.79 0.78 0.79 0.78 0.79 0.79 0.81 0.80 0.79
0.96 1.03 1.04 1.04 1.01 0.92 0.89 0.90 0.91 0.85 0.84 0.86 0.84 0.82 0.81 0.78 0.77 0.79 0.80 0.80 0.79 0.80 0.79 0.80 0.80 0.81 0.82 0.82 0.84 0.84 0.84 0.86
0.92 0.99 1.03 1.04 1.04 1.01 0.91 0.84 0.82 0.81 0.83 0.85 0.85 0.80 0.78 0.80 0.79 0.81 0.81 0.85 0.85 0.86 0.87 0.88 0.87 0.87 0.88 0.88 0.88 0.92 0.96 1.02
0.96 0.96 1.03 1.06 1.02 1.01 0.99 0.95 0.89 0.86 0.84 0.85 0.89 0.88 0.85 0.83 0.83 0.83 0.86 0.91 0.94 0.96 0.97 0.98 0.99 0.99 0.95 0.96 0.97 1.01 1.04 1.05
1.01 1.02 1.03 1.01 1.02 1.03 1.02 1.04 1.02 0.95 0.93 0.95 0.95 0.95 0.94 0.92 0.90 0.90 0.94 0.99 1.02 1.05 1.08 1.11 1.11 1.12 1.05 1.03 1.03 1.04 1.07 1.10
1.00 1.06 1.06 1.08 1.01 1.02 1.03 1.04 1.04 1.05 1.04 1.05 1.07 1.07 1.08 1.03 0.99 0.99 1.03 1.05 1.08 1.10 1.12 1.13 1.15 1.16 1.17 1.16 1.14 1.17 1.21 1.24
0.96 1.07 1.07 1.06 1.13 1.11 1.08 1.09 1.10 1.13 1.15 1.15 1.15 1.17 1.18 1.15 1.11 1.10 1.14 1.13 1.14 1.16 1.18 1.19 1.19 1.26 1.31 1.36 1.39 1.40 1.43 1.43
0.83 0.92 1.00 1.09 1.13 1.17 1.18 1.15 1.14 1.20 1.21 1.25 1.27 1.26 1.24 1.22 1.20 1.18 1.22 1.16 1.14 1.20 1.25 1.32 1.31 1.34 1.35 1.36 1.42 1.48 1.51 1.48
0.70 0.81 0.85 0.98 1.01 1.02 1.04 1.01 1.11 1.17 1.25 1.31 1.38 1.39 1.37 1.24 1.25 1.32 1.27 1.24 1.21 1.31 1.39 1.39 1.41 1.48 1.40 1.34 1.39 1.47 1.41 1.42
0.62 0.68 0.80 0.88 0.93 0.94 1.06 1.07 1.11 1.17 1.27 1.33 1.42 1.49 1.51 1.48 1.44 1.42 1.38 1.38 1.41 1.54 1.59 1.52 1.51 1.56 1.40 1.37 1.14 1.25 1.35 1.32
0.66 0.61 0.69 0.86 0.89 0.99 1.04 1.15 1.18 1.14 1.15 1.22 1.34 1.47 1.61 1.45 1.45 1.42 1.38 1.51 1.46 1.60 1.65 1.59 1.43 1.56 1.62 1.41 1.16 0.94 0.99 1.12
0.78 0.67 0.65 0.83 0.96 0.93 0.91 0.89 0.93 1.03 1.12 1.25 1.33 1.45 1.59 1.58 1.52 1.49 1.34 1.56 1.53 1.69 1.73 1.62 1.57 1.44 1.50 1.41 1.32 1.20 0.99 0.83
0.87 0.77 0.74 0.76 0.96 0.99 0.97 0.94 0.99 1.15 1.22 1.22 1.34 1.46 1.56 1.57 1.56 1.57 1.57 1.66 1.66 1.70 1.71 1.61 1.53 1.38 1.30 1.23 1.21 1.22 1.22 1.04
0.91 0.90 0.82 0.87 0.87 1.02 1.03 0.99 1.04 1.12 1.20 1.23 1.37 1.50 1.55 1.61 1.65 1.55 1.72 1.70 1.68 1.69 1.64 1.58 1.47 1.34 1.40 1.32 1.22 1.11 1.06 1.03
0.97 1.00 0.91 0.94 1.01 1.05 1.12 1.14 1.17 1.21 1.29 1.34 1.42 1.46 1.53 1.63 1.74 1.74 1.62 1.59 1.57 1.56 1.42 1.32 1.32 1.29 1.22 1.16 1.17 1.14 1.12 1.13
1.03 1.11 1.09 1.10 1.10 1.24 1.35 1.38 1.37 1.41 1.50 1.51 1.49 1.45 1.51 1.59 1.67 1.65 1.58 1.51 1.46 1.34 1.25 1.23 1.16 1.07 1.02 0.99 0.98 0.96 0.97 0.95
Wind_Speed
14 17 17 18 18 17 16 16 15 15 14 13 12 12 11 10 10 9 9 9 9 9 9 9 9 9 10 10 11 11 12 12
12 16 19 20 20 20 19 18 17 17 16 15 15 14 13 13 12 12 12 12 12 12 12 12 12 12 13 13 14 14 15 15
10 13 18 20 21 22 21 21 20 20 19 18 18 17 16 16 15 15 15 14 14 14 14 14 15 15 16 16 17 17 17 18
11 12 15 18 21 23 23 23 23 22 22 21 20 20 19 18 18 18 17 17 17 17 17 17 18 18 18 19 20 20 20 20
13 13 15 17 19 22 23 24 25 25 24 24 23 22 21 21 20 20 19 19 19 19 19 19 20 20 21 21 21 22 22 22
16 16 16 18 19 21 23 24 25 26 26 26 25 24 24 23 22 21 21 20 20 20 20 21 21 22 22 22 22 22 22 23
20 19 19 19 20 20 22 23 24 26 27 27 27 26 25 24 24 23 23 22 21 21 21 21 22 22 22 22 22 22 22 22
23 23 22 22 22 22 22 23 24 24 25 26 27 26 25 25 25 24 24 23 23 22 22 21 21 22 22 22 22 23 23 23
27 27 26 26 25 25 24 24 24 24 25 25 26 26 26 26 25 25 25 24 24 24 23 22 22 22 22 22 22 23 23 24
29 29 30 30 29 29 28 27 26 26 26 26 27 28 28 27 26 26 26 26 25 24 24 23 23 22 22 21 22 22 23 24
29 30 32 32 33 32 32 31 30 29 29 29 29 30 30 29 28 28 28 27 26 26 25 24 23 23 23 22 23 23 24 24
29 30 33 33 34 34 34 34 34 33 32 32 31 32 32 32 31 30 30 29 28 27 26 25 24 24 24 25 25 26 26 26
30 31 32 33 33 34 35 36 36 36 35 36 35 34 33 32 31 32 32 31 31 29 27 26 25 25 25 25 25 26 27 26
32 32 34 35 35 34 35 36 36 37 37 37 38 38 36 35 33 31 30 30 30 30 28 25 25 24 24 23 22 23 24 25
34 33 34 32 33 33 32 34 34 35 37 37 37 38 38 36 34 28 28 28 28 28 27 25 24 22 23 21 21 22 24 25
34 33 33 32 31 32 32 33 34 34 35 35 35 36 38 37 35 30 30 26 27 26 24 22 21 21 21 23 24 26 27 30
34 33 33 33 33 34 33 33 33 32 33 34 34 35 36 37 35 32 27 26 23 22 21 21 21 20 21 22 25 28 31 33
33 34 33 33 34 34 34 33 33 32 33 34 34 34 35 35 35 32 28 25 23 20 20 19 20 20 23 25 27 28 31 34
31 32 31 31 31 33 33 32 32 33 33 33 33 33 34 36 33 29 25 21 19 16 16 16 17 19 21 23 26 29 32 34
29 27 27 27 28 28 29 29 30 30 31 31 29 29 29 28 30 26 21 19 17 16 16 17 18 20 22 24 27 30 32 35
Wind_Direction
214 215 215 215 214 215 215 215 215 216 218 220 222 224 227 231 233 237 240 244 247 252 256 260 264 267 270 273 276 278 280 280
224 223 222 222 222 222 222 223 224 225 227 228 230 233 236 239 241 245 248 252 255 258 262 265 268 271 273 274 275 277 277 278
232 229 227 226 227 227 228 229 230 231 233 235 236 239 241 244 247 250 252 255 258 262 265 268 271 274 275 276 277 277 276 277
240 236 233 230 231 231 231 233 234 235 237 239 240 243 245 247 250 252 255 257 260 263 267 270 273 276 278 278 278 277 277 277
246 243 240 237 236 235 236 237 238 239 240 241 243 245 247 249 252 253 256 258 262 264 268 270 273 276 278 278 278 278 278 278
248 247 246 242 240 240 240 240 240 241 241 242 244 246 248 250 252 254 256 258 262 265 269 272 274 276 278 278 278 278 279 279
250 249 247 246 244 244 243 242 242 243 243 243 244 246 248 250 252 254 256 259 262 266 270 273 276 277 277 278 279 279 279 280
253 251 249 248 247 245 244 244 244 243 243 244 243 245 248 250 252 254 256 258 262 265 269 273 276 278 278 278 278 279 279 280
254 252 251 249 249 249 246 246 245 245 245 245 245 246 247 249 251 254 256 258 261 264 268 272 275 278 279 279 279 278 279 279
255 253 252 251 250 249 249 248 247 247 247 247 247 247 248 249 251 253 256 259 261 264 266 269 273 276 278 280 280 280 279 280
258 255 253 252 251 250 249 249 249 249 250 250 250 249 249 250 252 254 256 259 261 262 264 267 270 273 276 279 281 281 281 282
264 260 256 253 252 250 249 249 250 250 251 251 251 251 250 251 253 254 257 258 259 260 262 265 268 272 276 278 280 282 282 283
268 263 260 254 252 249 249 248 249 250 251 251 251 251 250 251 253 253 258 256 256 257 259 263 268 272 277 279 281 281 282 282
274 268 265 257 251 250 248 249 250 251 252 253 253 253 252 252 253 260 256 257 253 253 254 261 267 270 275 278 284 285 284 285
277 274 270 258 249 248 249 249 250 250 250 252 252 252 252 249 252 256 263 255 251 254 256 260 266 268 271 277 283 285 292 291
278 274 269 258 251 249 248 248 248 250 251 252 253 251 252 250 248 258 259 253 257 257 259 262 264 269 273 274 280 286 291 294
278 274 266 260 253 249 250 248 249 250 251 251 252 253 252 248 248 255 250 254 257 257 255 260 264 269 274 282 284 287 290 292
279 275 265 260 254 250 249 249 249 249 251 251 251 252 250 245 245 248 249 251 255 257 255 259 265 272 279 283 287 291 293 293
283 278 268 259 254 250 250 249 248 250 250 249 249 250 249 244 240 237 238 242 247 246 252 260 269 278 287 289 294 296 297 297
283 281 273 263 253 249 249 248 248 249 249 248 250 250 247 246 236 229 232 235 242 246 252 263 273 281 289 294 298 300 299 299